EW5622 Weather Reports


time (UTC)temp
C
wind
direction
speed
KPH
gust
KPH
rain 1hr
cm
rain 24hr
cm
rain mn
cm
humidity
%
barometer
mb
20260502123603 20 315 0.0 4.8 0.00 0.00 0.00 84 1014.1
20260502122705 20 0 0.0 0.0 0.00 0.00 0.00 84 1014.1
20260502121803 20 0 0.0 0.0 0.00 0.00 0.00 86 1015.1
20260502121114 20 0 0.0 0.0 0.00 0.00 0.00 86 1015.1
20260502120215 20 243 0.0 6.4 0.00 0.00 0.00 85 1015.1
20260502115403 20 264 0.0 3.2 0.00 0.00 0.00 84 1015.1
20260502114503 20 247 0.0 8.0 0.00 0.00 0.00 84 1015.1
20260502113813 20 279 0.0 6.4 0.00 0.00 0.00 83 1015.1
20260502112704 20 225 1.6 1.6 0.00 0.00 0.00 81 1015.1
20260502111803 20 0 0.0 0.0 0.00 0.00 0.00 80 1015.1
20260502110903 21 315 0.0 3.2 0.00 0.00 0.00 78 1015.1
20260502110005 21 315 3.2 3.2 0.00 0.00 0.00 77 1015.1
20260502105404 22 0 0.0 0.0 0.00 0.00 0.00 78 1015.1
20260502104713 21 247 0.0 4.8 0.00 0.00 0.00 80 1015.1
20260502103603 21 315 0.0 6.4 0.00 0.00 0.00 81 1015.1
20260502102705 20 0 0.0 0.0 0.00 0.00 0.00 84 1015.1
20260502101805 20 0 0.0 0.0 0.00 0.00 0.00 86 1015.1
20260502100903 20 0 0.0 0.0 0.00 0.00 0.00 88 1015.1
20260502090903 18 0 0.0 0.0 0.00 0.00 0.00 88 1015.1
20260502070903 15 0 0.0 0.0 0.00 0.00 0.00 87 1014.1
20260502070215 15 0 0.0 0.0 0.00 0.00 0.00 87 1014.1
20260502065403 15 0 0.0 0.0 0.00 0.00 0.00 87 1014.1
20260502064503 14 0 0.0 0.0 0.00 0.00 0.00 87 1014.1
20260502063603 14 0 0.0 0.0 0.00 0.00 0.00 87 1015.1
20260502062913 14 0 0.0 0.0 0.00 0.00 0.00 87 1015.1
20260502061805 13 0 0.0 0.0 0.00 0.00 0.00 86 1015.1
20260502061113 13 0 0.0 0.0 0.00 0.00 0.00 86 1015.1
20260502060003 13 0 0.0 0.0 0.00 0.00 0.00 87 1015.1
20260502055614 13 0 0.0 0.0 0.00 0.00 0.00 87 1015.1
20260502054503 13 0 0.0 0.0 0.00 0.00 0.00 87 1015.1
20260502053813 13 0 0.0 0.0 0.00 0.00 0.00 87 1015.1
20260502052703 13 0 0.0 0.0 0.00 0.00 0.00 87 1015.1
20260502052014 14 0 0.0 0.0 0.00 0.00 0.00 86 1015.1
20260502050903 14 0 0.0 0.0 0.00 0.00 0.00 85 1015.1
20260502050214 14 0 0.0 0.0 0.00 0.00 0.00 84 1015.1
20260502045614 14 0 0.0 0.0 0.00 0.00 0.00 84 1015.1
20260502044505 14 0 0.0 0.0 0.00 0.00 0.00 84 1014.1
20260502043603 14 0 0.0 0.0 0.00 0.00 0.00 84 1014.1
20260502042703 14 0 0.0 0.0 0.00 0.00 0.00 84 1014.1
20260502041803 14 0 0.0 0.0 0.00 0.00 0.00 84 1014.1
20260502040903 14 0 0.0 0.0 0.00 0.00 0.00 84 1014.1
20260502040003 14 0 0.0 0.0 0.00 0.00 0.00 84 1014.1
20260502035403 14 0 0.0 0.0 0.00 0.00 0.00 84 1015.1
20260502034503 14 0 0.0 0.0 0.00 0.00 0.00 84 1015.1
20260502033603 14 0 0.0 0.0 0.00 0.00 0.00 84 1014.1
20260502032705 14 0 0.0 0.0 0.00 0.00 0.00 84 1014.1
20260502031803 14 0 0.0 0.0 0.00 0.00 0.00 84 1015.1
20260502030903 14 0 0.0 0.0 0.00 0.00 0.00 84 1015.1
20260502030003 14 0 0.0 0.0 0.00 0.00 0.00 84 1015.1
20260502025403 14 0 0.0 0.0 0.00 0.00 0.00 84 1015.1
20260502024503 14 0 0.0 0.0 0.00 0.00 0.00 84 1015.1
20260502023814 14 0 0.0 0.0 0.00 0.00 0.00 85 1015.1
20260502022913 14 0 0.0 0.0 0.00 0.00 0.00 85 1015.1
20260502021803 14 90 0.0 1.6 0.00 0.00 0.00 85 1015.1
20260502020903 14 0 0.0 0.0 0.00 0.00 0.00 86 1015.1
20260502020003 15 81 0.0 6.4 0.00 0.00 0.00 86 1015.1
20260502015403 15 0 0.0 0.0 0.00 0.00 0.00 86 1015.1
20260502014505 15 0 0.0 0.0 0.00 0.00 0.00 86 1015.1
20260502013813 15 0 0.0 0.0 0.00 0.00 0.00 86 1015.1
20260502012913 15 0 0.0 0.0 0.00 0.00 0.00 86 1015.1
20260502011803 15 0 0.0 0.0 0.00 0.00 0.00 87 1015.1
20260502010903 15 90 0.0 3.2 0.00 0.00 0.00 87 1015.1
20260502010004 15 0 0.0 0.0 0.00 0.00 0.00 87 1015.1
20260502005403 15 0 0.0 0.0 0.00 0.00 0.00 87 1015.1
20260502004503 16 0 0.0 0.0 0.00 0.00 0.00 87 1015.1
20260502003603 16 90 0.0 3.2 0.00 0.00 0.00 87 1016.1
20260502002705 16 0 0.0 0.0 0.00 0.00 0.00 88 1016.1
20260502001803 16 0 0.0 0.0 0.00 0.00 0.00 88 1016.1
20260502000903 16 0 0.0 0.0 0.00 0.00 0.00 88 1016.1
20260502000003 16 90 0.0 3.2 0.00 0.00 0.00 88 1016.1
20260501235403 16 90 0.0 3.2 0.00 0.00 0.00 88 1016.1
20260501234503 17 0 0.0 0.0 0.00 0.00 0.00 88 1016.1
20260501233603 17 67 0.0 1.6 0.00 0.00 0.00 88 1016.1
20260501232705 17 0 0.0 0.0 0.00 0.00 0.00 88 1016.1
20260501231803 17 77 0.0 6.4 0.00 0.00 0.00 88 1016.1
20260501230903 17 84 0.0 1.6 0.00 0.00 0.00 89 1016.1
20260501230005 17 67 1.6 1.6 0.00 0.00 0.00 89 1016.1
20260501225403 17 0 0.0 0.0 0.00 0.00 0.00 89 1016.1
20260501224713 18 0 0.0 0.0 0.00 0.00 0.00 89 1016.1
20260501223812 18 0 0.0 0.0 0.00 0.00 0.00 89 1017.1
20260501222703 18 0 0.0 0.0 0.00 0.00 0.00 89 1017.1
20260501221803 18 0 0.0 0.0 0.00 0.00 0.00 90 1016.1
20260501220903 18 0 0.0 0.0 0.00 0.00 0.00 90 1016.1
20260501220004 18 0 0.0 0.0 0.00 0.00 0.00 90 1016.1
20260501215613 18 0 0.0 0.0 0.00 0.00 0.00 90 1016.1
20260501214503 18 90 3.2 3.2 0.00 0.00 0.00 89 1016.1
20260501213603 19 0 0.0 0.0 0.00 0.00 0.00 89 1016.1
20260501212703 19 0 0.0 0.0 0.00 0.00 0.00 88 1016.1
20260501211803 19 0 0.0 0.0 0.00 0.00 0.00 88 1016.1
20260501210905 19 0 0.0 0.0 0.00 0.00 0.00 87 1016.1
20260501210005 19 0 0.0 0.0 0.00 0.00 0.00 87 1016.1
20260501205403 19 0 0.0 0.0 0.00 0.00 0.00 87 1016.1
20260501204714 19 0 0.0 0.0 0.00 0.00 0.00 86 1017.1
20260501203603 20 0 0.0 0.0 0.00 0.00 0.00 86 1016.1
20260501202705 20 0 0.0 0.0 0.00 0.00 0.00 85 1016.1
20260501202014 20 0 0.0 0.0 0.00 0.00 0.00 85 1016.1
20260501200903 20 0 0.0 0.0 0.00 0.00 0.00 84 1016.1
20260501200003 20 0 0.0 0.0 0.00 0.00 0.00 83 1016.1
20260501195612 20 0 0.0 0.0 0.00 0.00 0.00 82 1016.1
20260501194503 20 0 0.0 0.0 0.00 0.00 0.00 82 1016.1
20260501193603 20 0 0.0 0.0 0.00 0.00 0.00 81 1016.1
20260501192913 20 0 0.0 0.0 0.00 0.00 0.00 81 1016.1
20260501191803 20 0 0.0 0.0 0.00 0.00 0.00 80 1016.1
20260501190903 20 0 0.0 0.0 0.00 0.00 0.00 80 1016.1
20260501190215 21 0 0.0 0.0 0.00 0.00 0.00 80 1016.1
20260501185406 21 90 0.0 1.6 0.00 0.00 0.00 79 1016.1
20260501184503 21 90 1.6 1.6 0.00 0.00 0.00 78 1016.1
20260501183603 21 0 0.0 0.0 0.00 0.00 0.00 78 1016.1
20260501182703 21 0 0.0 0.0 0.00 0.00 0.00 77 1016.1
20260501181805 22 0 0.0 0.0 0.00 0.00 0.00 76 1016.1
20260501181115 22 86 0.0 6.4 0.00 0.00 0.00 75 1016.1
20260501180003 22 90 0.0 6.4 0.00 0.00 0.00 74 1016.1
20260501175616 22 82 1.6 6.4 0.00 0.00 0.00 74 1016.1
20260501174713 22 89 0.0 12.9 0.00 0.00 0.00 73 1016.1
20260501173813 23 76 0.0 9.7 0.00 0.00 0.00 72 1016.1
20260501172914 23 81 9.7 9.7 0.00 0.00 0.00 72 1016.1
20260501171805 23 67 0.0 6.4 0.00 0.00 0.00 71 1016.1
20260501171115 23 76 0.0 11.3 0.00 0.00 0.00 71 1016.1
20260501170004 24 78 0.0 8.0 0.00 0.00 0.00 71 1016.1
20260501165405 24 43 0.0 6.4 0.00 0.00 0.00 70 1016.1
20260501164505 24 85 6.4 8.0 0.00 0.00 0.00 70 1016.1
20260501163603 25 67 0.0 4.8 0.00 0.00 0.00 70 1016.1
20260501162705 25 38 0.0 1.6 0.00 0.00 0.00 69 1016.1
20260501161803 25 71 0.0 6.4 0.00 0.00 0.00 68 1016.1
20260501160903 25 47 0.0 3.2 0.00 0.00 0.00 69 1016.1
20260501160005 25 76 0.0 6.4 0.00 0.00 0.00 69 1016.1
20260501155404 25 90 6.4 6.4 0.00 0.00 0.00 68 1016.1
20260501154503 25 90 0.0 1.6 0.00 0.00 0.00 68 1016.1
20260501153603 25 90 0.0 1.6 0.00 0.00 0.00 68 1016.1
20260501152703 25 85 0.0 9.7 0.00 0.00 0.00 68 1016.1
20260501151803 25 87 4.8 9.7 0.00 0.00 0.00 67 1017.1
20260501150905 26 90 0.0 9.7 0.00 0.00 0.00 67 1017.1
20260501150004 25 90 0.0 9.7 0.00 0.00 0.00 68 1017.1
20260501145405 25 83 0.0 9.7 0.00 0.00 0.00 68 1017.1
20260501144505 25 90 0.0 6.4 0.00 0.00 0.00 69 1017.1
20260501143813 25 86 0.0 9.7 0.00 0.00 0.00 68 1017.1
20260501142703 26 90 0.0 9.7 0.00 0.00 0.00 69 1017.1